[[{"header":{"parameterUnit":"m.s-1","parameterCategory":1,"la1":30.2991,"la2":30.254,"lo1":-89.0895,"lo2":-89.0444,"dx":0.0017,"dy":0.0017,"nx":28,"ny":28,"refTime":"2022-12-16T09:00:00:Z","depth":0,"parameterNumber":2,"parameterNumberName":"U-component_of_WINDS"},"data":[0,0,0,0,0,0,0,0,0,0,0,0,0,0,0,0,0,0,0,0,0,0,0,0,0,0,0,0,0,0,0,0,0,0,0,0,0,0,0,0,0,0,0,0,0,0,0,0,0,0,0,0,0,0,0,0,0,0,0.6256,0.6256,0,0.628,0.628,0.6281,0.6282,0.6282,0.6281,0.6281,0.6306,0.6307,0.6308,0,0,0,0,0,0,0,0,0,0,0,0,0,0.6211,0.6212,0.6256,0.6256,0.6256,0.628,0.628,0.6281,0.6282,0.6282,0.6281,0.6281,0.6306,0.6307,0.6308,0,0,0,0,0,0,0,0,0,0,0,0,0,0.6232,0.6212,0.6256,0.626,0.626,0.628,0.628,0.6281,0.6282,0.6282,0.6281,0.6281,0.6305,0.6307,0.6308,0.6325,0,0,0.6312,0.6313,0,0,0,0,0,0,0,0,0.6231,0.6234,0.6259,0.6259,0.626,0.6278,0.6274,0.6296,0.6282,0.6274,0.6281,0.6281,0.6297,0.6299,0.6304,0.6326,0.6327,0.6312,0.6313,0.6314,0.6314,0,0,0,0,0,0,0,0.623,0.6233,0.6265,0.6259,0.626,0.6261,0.6263,0.6278,0.6287,0.6275,0.6275,0.6278,0.6297,0.6303,0.6305,0.6328,0.6312,0.6314,0.6314,0.6315,0.6366,0.6366,0,0,0,0,0,0,0.6227,0.6232,0.6264,0.6266,0.6244,0.6262,0.6265,0.6272,0.6287,0.6289,0.6278,0.6278,0.6301,0.6303,0.6306,0.6327,0.6314,0.6315,0.6316,0.6365,0.6366,0.6366,0,0,0,0,0,0,0.6226,0.623,0.6263,0.6249,0.6253,0.6263,0.6272,0.6273,0.6279,0.629,0.6292,0.6282,0.6301,0.6304,0.6321,0.6328,0.6316,0.6317,0.6365,0.6365,0.6366,0.637,0,0,0,0,0,0,0.6225,0.623,0.6236,0.6249,0.6254,0.6277,0.6272,0.6274,0.6281,0.6281,0.6294,0.6296,0.6301,0.6318,0.6322,0.633,0.6318,0.6364,0.6365,0.6366,0.6369,0.637,0.6372,0,0,0,0,0,0.6223,0.6236,0.6236,0.624,0.6262,0.6278,0.6281,0.6286,0.6282,0.6289,0.6296,0.6296,0.6327,0.632,0.6324,0.6332,0.6363,0.6365,0.6366,0.6368,0.637,0.6372,0,0,0,0,0,0,0.6223,0.6238,0.6238,0.6255,0.6265,0.6278,0.6286,0.6287,0.6299,0.6298,0.6304,0.6307,0.6323,0.633,0.6322,0.635,0.6345,0.6347,0.6345,0.6347,0.6349,0.6347,0.6319,0,0,0,0,0,0.6225,0.6237,0.6249,0.6263,0.6268,0.6276,0.6283,0.6286,0.6297,0.6301,0.631,0.632,0.6332,0.634,0.6352,0.637,0.6373,0.6378,0.6379,0.6381,0.6382,0.6393,0.6395,0.637,0.637,0.637,0,0,0.6229,0.6238,0.6245,0.6263,0.6271,0.6283,0.628,0.6292,0.6302,0.6303,0.6319,0.6326,0.6338,0.6356,0.6364,0.6362,0.639,0.6382,0.6383,0.6384,0.6394,0.6397,0.6399,0.6371,0.6371,0.6371,0,0,0.6242,0.6251,0.6263,0.6272,0.6285,0.629,0.6294,0.6306,0.6311,0.6328,0.6329,0.6341,0.6361,0.637,0.6377,0.6396,0.6396,0.64,0.6407,0.6417,0.6419,0.6421,0.6428,0.643,0.6401,0.6401,0.6401,0,0.6246,0.6264,0.627,0.6283,0.6291,0.6293,0.6307,0.6315,0.633,0.6336,0.6333,0.636,0.6369,0.6389,0.6393,0.6399,0.6403,0.6398,0.6418,0.642,0.6422,0.6429,0.6431,0.6401,0.6401,0.6401,0.6401,0,0.6268,0.628,0.6289,0.6305,0.6314,0.6327,0.6335,0.6343,0.6346,0.6353,0.637,0.638,0.6395,0.64,0.6402,0.6421,0.6419,0.6417,0.6412,0.6425,0.6431,0.6433,0.6402,0.6402,0.6402,0.6402,0,0,0.628,0.63,0.6303,0.631,0.6325,0.6335,0.6349,0.6363,0.6371,0.6382,0.6394,0.6412,0.6411,0.6419,0.6423,0.6433,0.6447,0.643,0.643,0.6433,0.6468,0.6469,0.6472,0.6448,0.6448,0.6449,0.6467,0,0.6295,0.6319,0.6326,0.6346,0.6358,0.6362,0.6374,0.6384,0.6391,0.6403,0.641,0.6423,0.6421,0.6426,0.6435,0.6443,0.6454,0.6442,0.6459,0.6459,0.6455,0.6475,0.6475,0.6492,0.647,0.647,0.647,0,0.6315,0.6328,0.6349,0.6364,0.6369,0.638,0.6394,0.6405,0.6417,0.6422,0.6432,0.6435,0.645,0.6444,0.6465,0.6457,0.6465,0.647,0.6471,0.6472,0.6465,0.6477,0.6498,0.65,0.6474,0.6474,0.6474,0,0.6323,0.6345,0.6361,0.6367,0.6384,0.6391,0.6399,0.6411,0.642,0.6432,0.6438,0.6452,0.646,0.6471,0.6478,0.6474,0.6499,0.6494,0.6503,0.6503,0.6507,0.6507,0.653,0.6513,0.6513,0.6513,0.6513,0,0.6338,0.6352,0.6364,0.6374,0.6389,0.6397,0.6412,0.6419,0.6431,0.6442,0.6447,0.6457,0.6467,0.6479,0.6485,0.6502,0.6505,0.6509,0.6511,0.6509,0.6508,0.6513,0.6512,0.6513,0.6513,0.6513,0.6513,0,0.6348,0.6357,0.6375,0.639,0.6394,0.6405,0.6418,0.6428,0.6435,0.645,0.6454,0.6466,0.6481,0.649,0.6508,0.6512,0.6531,0.6532,0.6527,0.6527,0.6536,0.6535,0.6562,0.6566,0.6547,0.6547,0.6547,0,0.6358,0.6368,0.6384,0.6393,0.64,0.6414,0.6423,0.6431,0.644,0.6456,0.6464,0.648,0.6492,0.6516,0.6526,0.6541,0.6542,0.6551,0.6544,0.6542,0.6542,0.6542,0.6543,0.6552,0.6552,0.6552,0.6552,0,0.6373,0.6377,0.639,0.6405,0.6415,0.6427,0.6439,0.6446,0.6456,0.6467,0.6482,0.6492,0.6512,0.6527,0.6543,0.6551,0.6554,0.6555,0.6557,0.6555,0.6552,0.6554,0.6529,0.6554,0.6553,0.6553,0.6553,0.6553,0.6383,0.6393,0.6406,0.642,0.643,0.6442,0.6452,0.6461,0.6474,0.6491,0.6495,0.6512,0.6525,0.6547,0.6555,0.6569,0.6567,0.6571,0.6572,0.6573,0.6573,0.655,0.6572,0.6572,0.6572,0.6572,0.6572,0,0.6399,0.6408,0.6421,0.6438,0.6449,0.6451,0.6465,0.6474,0.6489,0.6501,0.6514,0.6532,0.6547,0.6559,0.6575,0.6583,0.6585,0.6587,0.6586,0.6588,0.6574,0.657,0.6586,0.6586,0.6586,0.6586,0.6586,0.6586,0.6408,0.6425,0.6431,0.6453,0.6462,0.6478,0.6486,0.6496,0.6506,0.6527,0.6539,0.6547,0.656,0.6577,0.6591,0.6594,0.66,0.6602,0.6605,0.6591,0.6589,0.6588,0.6584,0.6603,0.6603,0.6619,0.6619,0.6619]},{"header":{"parameterUnit":"m.s-1","parameterCategory":1,"la1":30.2991,"la2":30.254,"lo1":-89.0895,"lo2":-89.0444,"dx":0.0017,"dy":0.0017,"nx":28,"ny":28,"refTime":"2022-12-16T09:00:00:Z","depth":0,"parameterNumber":3,"parameterNumberName":"V-component_of_WINDS"},"data":[0,0,0,0,0,0,0,0,0,0,0,0,0,0,0,0,0,0,0,0,0,0,0,0,0,0,0,0,0,0,0,0,0,0,0,0,0,0,0,0,0,0,0,0,0,0,0,0,0,0,0,0,0,0,0,0,0,0,-3.3731,-3.3733,0,-3.3915,-3.3917,-3.3919,-3.3924,-3.3922,-3.392,-3.3917,-3.4108,-3.4115,-3.4122,0,0,0,0,0,0,0,0,0,0,0,0,0,-3.3385,-3.3392,-3.373,-3.3733,-3.3735,-3.3914,-3.3917,-3.392,-3.3925,-3.3922,-3.3919,-3.3916,-3.4106,-3.4114,-3.4123,0,0,0,0,0,0,0,0,0,0,0,0,0,-3.3549,-3.3394,-3.373,-3.3759,-3.3764,-3.3914,-3.3917,-3.392,-3.3925,-3.3922,-3.3918,-3.3915,-3.4103,-3.4113,-3.4124,-3.4258,0,0,-3.4157,-3.4162,0,0,0,0,0,0,0,0,-3.354,-3.3562,-3.3753,-3.3757,-3.3763,-3.3893,-3.3865,-3.4034,-3.3926,-3.3864,-3.3917,-3.3913,-3.4039,-3.4055,-3.4097,-3.4267,-3.4275,-3.4158,-3.4164,-3.4169,-3.4172,0,0,0,0,0,0,0,-3.3528,-3.3554,-3.3803,-3.3755,-3.3762,-3.3764,-3.3783,-3.3897,-3.3968,-3.3869,-3.387,-3.3891,-3.4041,-3.4087,-3.4102,-3.4278,-3.4157,-3.4167,-3.4174,-3.4178,-3.4569,-3.4573,0,0,0,0,0,0,-3.3511,-3.3544,-3.3798,-3.3809,-3.364,-3.3773,-3.3795,-3.3855,-3.3967,-3.3981,-3.3894,-3.3891,-3.407,-3.4089,-3.4108,-3.4275,-3.4169,-3.4179,-3.4185,-3.4565,-3.457,-3.4575,0,0,0,0,0,0,-3.3503,-3.3533,-3.379,-3.3677,-3.371,-3.3782,-3.385,-3.386,-3.3905,-3.3986,-3.3999,-3.3927,-3.4068,-3.4093,-3.4221,-3.4281,-3.4184,-3.4194,-3.4561,-3.4567,-3.4572,-3.4607,0,0,0,0,0,0,-3.3493,-3.3531,-3.3582,-3.3678,-3.3716,-3.39,-3.3853,-3.3866,-3.3924,-3.3921,-3.4021,-3.4034,-3.4067,-3.4205,-3.4232,-3.4294,-3.4202,-3.4556,-3.4564,-3.4571,-3.4601,-3.4614,-3.4624,0,0,0,0,0,-3.3481,-3.3585,-3.3585,-3.3615,-3.3781,-3.3903,-3.3925,-3.3961,-3.3928,-3.3981,-3.4033,-3.4031,-3.427,-3.4218,-3.4248,-3.4315,-3.4552,-3.4561,-3.457,-3.4596,-3.4611,-3.4624,0,0,0,0,0,0,-3.3495,-3.3598,-3.3599,-3.3736,-3.3811,-3.3903,-3.3971,-3.3975,-3.4061,-3.4055,-3.4096,-3.4119,-3.4247,-3.4293,-3.4234,-3.4452,-3.4407,-3.4423,-3.4417,-3.4432,-3.4443,-3.443,-3.4211,0,0,0,0,0,-3.3513,-3.3603,-3.3688,-3.3801,-3.3838,-3.3898,-3.3953,-3.3974,-3.4053,-3.4085,-3.4146,-3.4223,-3.4316,-3.4376,-3.4466,-3.4607,-3.463,-3.4668,-3.4679,-3.4689,-3.4702,-3.4782,-3.48,-3.4604,-3.4604,-3.4603,0,0,-3.3553,-3.3621,-3.3675,-3.3806,-3.3866,-3.3959,-3.3925,-3.4024,-3.4094,-3.41,-3.4225,-3.4272,-3.4361,-3.4497,-3.456,-3.454,-3.4761,-3.47,-3.4707,-3.4715,-3.4793,-3.4811,-3.4828,-3.461,-3.4609,-3.4608,0,0,-3.3674,-3.3733,-3.3835,-3.3896,-3.3987,-3.4026,-3.405,-3.4143,-3.4175,-3.43,-3.4307,-3.4391,-3.4549,-3.4613,-3.4666,-3.4811,-3.4813,-3.4839,-3.49,-3.4978,-3.4993,-3.5007,-3.5061,-3.5079,-3.4851,-3.4852,-3.4852,0,-3.3713,-3.3852,-3.3887,-3.3986,-3.4044,-3.4053,-3.4157,-3.4215,-3.4331,-3.4371,-3.4347,-3.4546,-3.4607,-3.4758,-3.4794,-3.4836,-3.4866,-3.4829,-3.4988,-3.5002,-3.5016,-3.5067,-3.5087,-3.4854,-3.4854,-3.4854,-3.4853,0,-3.3896,-3.3992,-3.4063,-3.4175,-3.4241,-3.4342,-3.4393,-3.4455,-3.4471,-3.4512,-3.4641,-3.4714,-3.4819,-3.4856,-3.4872,-3.5011,-3.4996,-3.4979,-3.4936,-3.5037,-3.5086,-3.5106,-3.4858,-3.4857,-3.4856,-3.4856,0,0,-3.4032,-3.4161,-3.4187,-3.4238,-3.4339,-3.4415,-3.4517,-3.4619,-3.4673,-3.4752,-3.484,-3.4974,-3.4959,-3.502,-3.5043,-3.511,-3.5223,-3.5086,-3.5089,-3.511,-3.5382,-3.5395,-3.5417,-3.5223,-3.5227,-3.523,-3.5375,0,-3.4165,-3.4346,-3.438,-3.4538,-3.4629,-3.4638,-3.4727,-3.4799,-3.4841,-3.4925,-3.4971,-3.5066,-3.5038,-3.5075,-3.5142,-3.5195,-3.5278,-3.5184,-3.5307,-3.5311,-3.5286,-3.5442,-3.5457,-3.559,-3.5394,-3.5397,-3.54,0,-3.4345,-3.4429,-3.4596,-3.4686,-3.4725,-3.4805,-3.4902,-3.4981,-3.5063,-3.5089,-3.5156,-3.5172,-3.5279,-3.5229,-3.5378,-3.5314,-3.5366,-3.5399,-3.5405,-3.5419,-3.5363,-3.5463,-3.5633,-3.5653,-3.543,-3.5427,-3.5425,0,-3.443,-3.4585,-3.4705,-3.4748,-3.4856,-3.4911,-3.4959,-3.5038,-3.5097,-3.5182,-3.5222,-3.5318,-3.5371,-3.5445,-3.5487,-3.5446,-3.5634,-3.5587,-3.5659,-3.5659,-3.57,-3.5697,-3.5883,-3.573,-3.573,-3.5729,-3.5729,0,-3.4577,-3.4679,-3.4745,-3.4819,-3.4934,-3.4972,-3.5085,-3.5132,-3.5202,-3.5286,-3.53,-3.5379,-3.5428,-3.5514,-3.5547,-3.5666,-3.5689,-3.5714,-3.5722,-3.5715,-3.5712,-3.5751,-3.5743,-3.5735,-3.5733,-3.5732,-3.5731,0,-3.4692,-3.4739,-3.4872,-3.4962,-3.4987,-3.5068,-3.5147,-3.522,-3.526,-3.5367,-3.5394,-3.546,-3.5562,-3.561,-3.5736,-3.5758,-3.5895,-3.5895,-3.5867,-3.5871,-3.5941,-3.5935,-3.616,-3.6192,-3.6016,-3.6017,-3.6019,0,-3.4783,-3.4862,-3.4961,-3.5018,-3.5067,-3.5159,-3.522,-3.526,-3.5323,-3.5423,-3.5484,-3.5587,-3.5671,-3.5834,-3.5893,-3.599,-3.5995,-3.6067,-3.601,-3.6,-3.5998,-3.5994,-3.6003,-3.6078,-3.608,-3.6081,-3.6082,0,-3.4941,-3.4961,-3.5048,-3.5144,-3.5216,-3.5293,-3.5369,-3.5415,-3.5468,-3.5538,-3.5642,-3.5708,-3.5837,-3.5939,-3.604,-3.609,-3.6096,-3.6099,-3.6122,-3.6116,-3.6097,-3.611,-3.5898,-3.6095,-3.6093,-3.6092,-3.6092,-3.6091,-3.5049,-3.512,-3.5201,-3.5298,-3.5359,-3.543,-3.5503,-3.5553,-3.5641,-3.5749,-3.5767,-3.5879,-3.596,-3.6096,-3.6149,-3.6238,-3.6221,-3.6253,-3.6261,-3.6269,-3.6274,-3.6081,-3.6256,-3.6256,-3.6255,-3.6255,-3.6255,0,-3.521,-3.5262,-3.535,-3.5456,-3.5532,-3.5529,-3.5613,-3.5678,-3.5776,-3.585,-3.5933,-3.6054,-3.6153,-3.6219,-3.632,-3.6378,-3.6384,-3.6404,-3.6401,-3.6413,-3.6282,-3.6254,-3.6398,-3.6398,-3.6398,-3.6398,-3.6398,-3.6398,-3.5302,-3.5423,-3.5452,-3.5603,-3.5655,-3.5764,-3.5813,-3.5879,-3.5939,-3.6072,-3.6155,-3.6197,-3.6269,-3.6375,-3.6467,-3.6484,-3.6521,-3.6542,-3.6559,-3.6436,-3.6422,-3.6407,-3.6381,-3.6549,-3.655,-3.6682,-3.6684,-3.6685]}]]